Time,TemperatureF,DewpointF,PressureIn,WindDirection,WindDirectionDegrees,WindSpeedMPH,WindSpeedGustMPH,Humidity,HourlyPrecipIn,Conditions,Clouds,dailyrainin,SoftwareType,DateUTC
2013-08-22 00:23:00,72.0,71.0,-100.00,SSE,160,2.0,5.0,98,0.00,,,-99.99,,2013-08-22 04:23:00,
2013-08-22 00:54:00,72.0,71.0,-100.00,SSW,205,1.0,4.0,95,0.00,,,-99.99,,2013-08-22 04:54:00,
2013-08-22 01:13:00,71.0,70.0,-100.00,West,280,0.0,2.0,95,0.00,,,-99.99,,2013-08-22 05:13:00,
2013-08-22 01:22:00,71.0,71.0,-100.00,SE,130,3.0,5.0,97,0.00,,,-99.99,,2013-08-22 05:22:00,
2013-08-22 01:43:00,72.0,71.0,-100.00,SSE,165,2.0,4.0,97,0.00,,,-99.99,,2013-08-22 05:43:00,
2013-08-22 01:53:00,72.0,71.0,-100.00,SE,135,2.0,4.0,98,0.00,,,-99.99,,2013-08-22 05:53:00,
2013-08-22 02:22:00,71.0,71.0,-100.00,SW,215,2.0,4.0,98,0.00,,,-99.99,,2013-08-22 06:22:00,
2013-08-22 02:52:00,70.0,70.0,-100.00,WSW,245,2.0,2.0,99,0.00,,,-99.99,,2013-08-22 06:52:00,
2013-08-22 03:22:00,71.0,71.0,-100.00,WSW,255,5.0,9.0,99,0.00,,,-99.99,,2013-08-22 07:22:00,
2013-08-22 03:52:00,73.0,71.0,-100.00,West,260,4.0,10.0,94,0.55,,,-99.99,,2013-08-22 07:52:00,
2013-08-22 04:22:00,71.0,71.0,-100.00,West,275,2.0,6.0,97,0.00,,,-99.99,,2013-08-22 08:22:00,
2013-08-22 04:53:00,71.0,70.0,-100.00,SSW,200,5.0,7.0,98,0.00,,,-99.99,,2013-08-22 08:53:00,
2013-08-22 05:22:00,71.0,70.0,-100.00,SSW,210,6.0,13.0,96,0.00,,,-99.99,,2013-08-22 09:22:00,
2013-08-22 05:33:00,71.0,70.0,-100.00,SSW,210,6.0,13.0,96,0.00,,,-99.99,,2013-08-22 09:33:00,
2013-08-22 05:53:00,71.0,70.0,-100.00,West,280,2.0,4.0,97,0.00,,,-99.99,,2013-08-22 09:53:00,
2013-08-22 06:23:00,68.0,68.0,-100.00,NNW,345,0.0,1.0,99,0.00,,,-99.99,,2013-08-22 10:23:00,
2013-08-22 06:32:00,68.0,68.0,-100.00,NNW,345,0.0,1.0,99,0.00,,,-99.99,,2013-08-22 10:32:00,
2013-08-22 08:52:00,70.0,70.0,-100.00,ESE,110,1.0,2.0,99,0.00,,,-99.99,,2013-08-22 12:52:00,
2013-08-22 09:22:00,72.0,72.0,-100.00,ESE,105,1.0,2.0,99,0.00,,,-99.99,,2013-08-22 13:22:00,
2013-08-22 09:52:00,74.0,73.0,-100.00,SSW,200,2.0,4.0,96,0.00,,,-99.99,,2013-08-22 13:52:00,
2013-08-22 10:22:00,76.0,73.0,-100.00,WSW,250,4.0,7.0,88,0.00,,,-99.99,,2013-08-22 14:22:00,
2013-08-22 11:22:00,80.0,73.0,-100.00,West,270,7.0,12.0,79,0.00,,,-99.99,,2013-08-22 15:22:00,
2013-08-22 11:34:00,80.0,73.0,-100.00,West,270,7.0,12.0,79,0.00,,,-99.99,,2013-08-22 15:34:00,
2013-08-22 11:54:00,80.0,72.0,-100.00,West,280,8.0,12.0,76,0.00,,,-99.99,,2013-08-22 15:54:00,
2013-08-22 12:25:00,81.0,73.0,-100.00,WNW,290,8.0,13.0,77,0.00,,,-99.99,,2013-08-22 16:25:00,
2013-08-22 12:54:00,82.0,73.0,-100.00,WNW,290,6.0,9.0,74,0.00,,,-99.99,,2013-08-22 16:54:00,
2013-08-22 13:24:00,83.0,72.0,-100.00,WNW,290,4.0,9.0,70,0.00,,,-99.99,,2013-08-22 17:24:00,
2013-08-22 13:53:00,81.0,72.0,-100.00,WNW,290,6.0,8.0,74,0.00,,,-99.99,,2013-08-22 17:53:00,
2013-08-22 14:22:00,81.0,73.0,-100.00,West,260,6.0,7.0,78,0.00,,,-99.99,,2013-08-22 18:22:00,
2013-08-22 14:52:00,81.0,73.0,-100.00,WNW,290,6.0,9.0,77,0.00,,,-99.99,,2013-08-22 18:52:00,
2013-08-22 15:22:00,80.0,74.0,-100.00,West,275,4.0,9.0,81,0.00,,,-99.99,,2013-08-22 19:22:00,
2013-08-22 15:53:00,80.0,74.0,-100.00,West,275,4.0,6.0,82,0.00,,,-99.99,,2013-08-22 19:53:00,
2013-08-22 16:23:00,80.0,73.0,-100.00,West,265,2.0,5.0,79,0.55,,,-99.99,,2013-08-22 20:23:00,
2013-08-22 16:52:00,72.0,72.0,-100.00,SSW,205,11.0,20.0,99,-99.99,,,-99.99,,2013-08-22 20:52:00,
2013-08-22 17:22:00,70.0,70.0,-100.00,NNW,345,6.0,10.0,99,1.69,,,-99.99,,2013-08-22 21:22:00,
2013-08-22 17:54:00,70.0,70.0,-100.00,NNW,345,2.0,4.0,99,1.69,,,-99.99,,2013-08-22 21:54:00,
2013-08-22 18:25:00,70.0,70.0,-100.00,NNW,335,7.0,13.0,99,-99.99,,,-99.99,,2013-08-22 22:25:00,
2013-08-22 18:53:00,69.0,69.0,-100.00,North,5,2.0,9.0,99,0.55,,,-99.99,,2013-08-22 22:53:00,
2013-08-22 19:23:00,69.0,69.0,-100.00,NW,325,2.0,6.0,99,0.55,,,-99.99,,2013-08-22 23:23:00,
2013-08-22 19:52:00,69.0,69.0,-100.00,North,10,1.0,6.0,99,0.00,,,-99.99,,2013-08-22 23:52:00,
2013-08-22 20:23:00,69.0,69.0,-100.00,NE,40,3.0,7.0,99,0.00,,,-99.99,,2013-08-23 00:23:00,
2013-08-22 20:52:00,69.0,69.0,-100.00,North,5,4.0,11.0,99,0.00,,,-99.99,,2013-08-23 00:52:00,
2013-08-22 21:21:00,69.0,69.0,-100.00,SSW,210,7.0,8.0,99,0.00,,,-99.99,,2013-08-23 01:21:00,
2013-08-22 21:52:00,69.0,69.0,-100.00,SW,220,4.0,7.0,99,0.00,,,-99.99,,2013-08-23 01:52:00,
2013-08-22 22:23:00,68.0,68.0,-100.00,West,260,5.0,7.0,99,0.00,,,-99.99,,2013-08-23 02:23:00,
2013-08-22 22:52:00,69.0,69.0,-100.00,West,265,2.0,6.0,99,0.00,,,-99.99,,2013-08-23 02:52:00,
2013-08-22 23:02:00,69.0,69.0,-100.00,West,265,2.0,6.0,99,0.00,,,-99.99,,2013-08-23 03:02:00,
2013-08-22 23:23:00,69.0,69.0,-100.00,WSW,255,1.0,3.0,99,0.00,,,-99.99,,2013-08-23 03:23:00,
2013-08-22 23:55:00,69.0,69.0,-100.00,WNW,285,5.0,7.0,99,0.00,,,-99.99,,2013-08-23 03:55:00,